Location: Beuvrequen
(50.8014°N, 1.6652°E)
Time: 03:40:27
(UTC+00:00)

Cosmos 389 Rocket - Pass Details

Date: 16 October 2021
Orbit: 439 x 468 km, 81.1° (Epoch: 28 November)

Event Time Altitude Azimuth Distance (km) Brightness Sun altitude
Rises 18:56:21 0° 214° (SW) 2,418 6.4 -19.3°
Reaches altitude 10° 18:58:33 10° 225° (SW) 1,554 5.6 -19.7°
Maximum altitude 19:01:36 31° 290° (WNW) 806 4.3 -20.1°
Drops below altitude 10° 19:04:42 10° 354° (N) 1,572 5.3 -20.6°
Sets 19:06:56 0° 5° (N) 2,452 6.2 -21.0°
